Date,TemperatureHighF,TemperatureAvgF,TemperatureLowF,DewpointHighF,DewpointAvgF,DewpointLowF,HumidityHigh,HumidityAvg,HumidityLow,PressureMaxIn,PressureMinIn,WindSpeedMaxMPH,WindSpeedAvgMPH,GustSpeedMaxMPH,PrecipitationSumIn
2013-1-1,41,38,29,41,36,26,100,93,87,30.18,29.96,16,3,16,0.17
2013-1-2,34,29,24,26,23,20,89,78,60,30.26,30.15,12,2,12,0.00
2013-1-3,43,32,23,31,26,20,92,78,58,30.40,30.23,16,1,16,0.00
2013-1-4,48,34,24,32,28,22,93,78,51,30.46,30.35,9,0,10,0.00
2013-1-5,45,38,28,37,31,26,91,78,62,30.37,30.21,11,1,13,0.00
2013-1-6,51,40,30,39,34,26,100,81,58,30.35,30.18,11,1,13,0.00
2013-1-7,50,35,25,31,27,23,91,75,45,30.41,30.17,13,1,14,0.00
2013-1-8,58,44,29,43,35,26,88,72,51,30.23,30.11,14,1,14,0.00
2013-1-9,54,52,49,53,50,43,96,93,75,30.31,30.15,15,3,16,1.07
2013-1-10,68,62,54,64,60,53,97,93,85,30.23,29.83,32,7,35,0.60
2013-1-11,67,61,55,61,54,50,93,78,56,29.98,29.87,19,3,19,0.06
2013-1-12,72,68,63,67,65,61,97,90,82,29.90,29.66,22,5,22,0.23
2013-1-13,71,42,31,65,39,26,95,91,82,30.25,29.66,25,4,25,3.00
2013-1-14,31,28,26,26,23,22,88,83,78,30.39,30.23,26,7,26,0.03
2013-1-15,31,29,26,29,26,22,94,90,83,30.25,30.03,17,3,17,0.00
2013-1-16,32,31,29,30,28,27,94,91,88,30.15,30.02,0,0,0,0.00
2013-1-17,46,37,31,38,32,27,92,81,68,30.44,30.08,21,2,21,0.05
2013-1-18,53,38,25,32,28,23,94,69,38,30.53,30.30,13,1,14,0.00
2013-1-19,58,46,33,38,34,28,92,63,40,30.30,30.12,16,3,18,0.00
2013-1-20,56,44,34,38,33,27,92,67,40,30.23,30.11,16,2,16,0.00
2013-1-21,40,34,26,27,22,19,79,62,44,30.32,30.13,17,4,18,0.00
2013-1-22,36,30,24,21,18,14,85,62,45,30.41,30.28,14,2,14,0.00
2013-1-23,55,40,27,39,30,19,86,68,53,30.32,30.13,10,1,13,0.00
2013-1-24,42,38,33,37,25,20,88,60,46,30.41,30.16,23,7,23,0.00
2013-1-25,47,38,33,43,33,23,93,81,52,30.22,29.98,13,2,13,0.11
2013-1-26,51,40,30,37,32,28,95,76,49,30.30,30.20,12,2,12,0.00
2013-1-27,63,58,46,54,49,35,81,73,64,30.21,30.05,16,5,19,0.00
2013-1-28,72,64,58,62,58,54,89,79,68,30.11,29.99,20,6,22,0.04
2013-1-29,75,68,61,65,61,58,91,79,65,30.00,29.36,32,8,36,0.14
2013-1-30,57,44,33,52,35,26,85,71,61,29.99,29.48,22,3,23,1.79
2013-1-31,54,40,28,35,29,21,86,66,45,30.29,29.99,21,2,21,0.00
2013-2-1,35,28,21,21,14,9,66,56,41,30.52,30.27,14,2,14,0.00
2013-2-2,50,38,29,36,28,16,91,69,54,30.27,30.09,10,1,11,0.00
2013-2-3,54,44,34,36,32,28,92,64,39,30.14,30.05,18,1,19,0.00
2013-2-4,58,46,37,45,36,28,92,68,43,30.06,29.86,15,2,16,0.05
2013-2-5,64,50,38,50,44,36,95,82,54,30.01,29.87,12,1,13,0.00
2013-2-6,59,50,38,44,41,37,95,73,55,30.17,29.99,13,3,15,0.00
2013-2-7,68,57,45,55,48,38,94,73,60,29.99,29.81,11,1,12,0.15
2013-2-8,57,44,34,55,39,30,95,83,72,30.28,29.84,28,7,28,0.31
2013-2-9,50,41,30,40,34,28,91,76,58,30.29,29.99,13,2,13,0.00
2013-2-10,60,55,50,58,49,38,95,80,57,29.99,29.69,25,7,25,0.44
2013-2-11,58,50,43,52,36,31,82,59,39,30.16,29.89,11,1,12,0.08
2013-2-12,51,46,38,41,38,35,87,72,56,30.11,29.75,14,3,15,0.03
2013-2-13,45,41,38,41,37,36,94,88,78,29.98,29.74,14,1,14,0.02
2013-2-14,61,47,35,42,38,33,94,72,40,30.01,29.94,18,2,18,0.02
2013-2-15,53,45,37,39,33,26,90,66,43,30.16,30.00,18,2,21,0.02
2013-2-16,39,34,29,26,22,18,79,62,44,30.24,30.15,17,1,20,0.05
2013-2-17,54,43,32,33,26,21,66,52,40,30.22,30.02,20,4,20,0.00
2013-2-18,58,51,44,52,43,32,93,75,55,30.03,29.69,33,7,33,0.94
2013-2-19,49,42,34,41,29,22,85,62,42,30.24,29.91,14,1,16,0.00
2013-2-20,35,32,30,25,20,16,75,61,51,30.33,30.14,19,4,21,0.00
2013-2-21,45,38,32,42,32,23,95,80,56,30.16,29.71,17,4,18,0.88
2013-2-22,49,41,36,40,37,30,96,87,69,30.04,29.83,10,1,11,0.00
2013-2-23,50,38,30,33,30,27,92,75,50,30.03,29.91,12,1,12,0.00
2013-2-24,56,43,30,36,31,26,91,65,44,30.08,29.87,14,3,15,0.00
2013-2-25,59,52,41,53,40,28,94,64,43,29.88,29.26,25,8,25,0.53
2013-2-26,54,44,41,52,39,34,94,80,72,29.77,29.26,19,4,22,0.06
2013-2-27,44,41,39,38,34,29,83,74,68,29.94,29.77,15,1,15,0.00
2013-2-28,42,39,34,32,30,28,80,69,63,30.07,29.93,14,1,15,0.00
2013-3-1,38,35,32,30,29,27,86,78,69,30.12,30.05,13,1,13,0.00
2013-3-2,34,32,30,29,26,22,90,80,68,30.21,30.09,17,2,18,0.02
2013-3-3,46,36,22,29,24,20,92,64,41,30.20,30.03,3,1,10,0.00
2013-3-4,68,61,39,49,40,26,66,46,33,30.03,29.70,22,7,24,0.00
2013-3-5,63,49,36,57,40,24,92,71,46,30.14,29.70,23,4,24,0.44
2013-3-6,44,37,34,30,27,23,80,65,57,30.32,30.13,18,3,19,0.00
2013-3-7,50,40,31,34,31,27,92,70,52,30.36,30.24,12,2,12,0.00
2013-3-8,62,48,34,38,31,28,83,55,30,30.35,30.12,12,2,13,0.00
2013-3-9,71,60,50,43,37,30,61,42,29,30.12,29.87,20,4,21,0.00
2013-3-10,65,57,50,57,50,43,95,78,46,29.89,29.69,20,6,31,1.01
2013-3-11,49,42,35,45,35,32,89,77,60,30.00,29.78,16,1,16,0.00
2013-3-12,56,42,29,36,31,25,94,68,36,30.17,29.99,13,1,13,0.00
2013-3-13,48,43,35,34,29,26,79,58,45,30.37,30.17,17,2,19,0.00
2013-3-14,63,50,30,39,32,26,86,53,35,30.38,30.11,16,3,19,0.00
2013-3-15,77,63,46,55,47,37,74,57,45,30.11,29.82,16,3,23,0.00
2013-3-16,76,67,59,58,54,48,82,63,49,29.86,29.76,19,4,21,0.00
2013-3-17,64,55,49,55,49,44,88,80,69,29.87,29.65,17,3,18,0.00
2013-3-18,67,51,43,61,47,41,95,87,70,30.00,29.61,10,1,21,0.28
2013-3-19,56,46,35,41,34,24,95,68,32,30.16,30.00,17,3,17,0.03
2013-3-20,53,47,35,38,26,15,80,45,32,30.19,30.03,18,2,18,0.02
2013-3-21,44,36,30,32,22,16,91,58,34,30.08,29.91,14,2,16,0.05
2013-3-22,46,42,34,44,40,32,94,92,86,29.96,29.83,12,4,13,0.26
2013-3-23,54,49,45,50,46,43,95,90,83,29.87,29.62,16,4,16,0.06
2013-3-24,50,48,36,48,45,28,96,92,66,29.91,29.47,14,2,32,0.10
2013-3-25,39,36,33,28,26,23,73,65,58,30.20,29.90,20,2,20,0.03
2013-3-26,47,38,30,30,27,24,80,66,47,30.32,30.20,17,2,17,0.24
2013-3-27,56,43,28,37,30,26,90,65,39,30.37,30.24,11,1,12,0.00
2013-3-28,67,52,36,46,37,31,86,59,34,30.31,30.16,12,1,14,0.00
2013-3-29,64,54,47,53,46,38,94,76,41,30.22,30.10,12,1,15,0.12
2013-3-30,58,53,48,56,52,47,96,95,93,30.14,29.88,11,2,11,0.13
2013-3-31,61,56,48,58,54,47,98,93,78,29.91,29.81,13,1,15,0.06
2013-4-1,65,53,43,49,45,41,100,74,51,30.08,29.88,16,3,17,0.02
2013-4-2,53,45,40,42,34,30,88,65,51,30.22,30.06,21,7,21,0.02
2013-4-3,51,46,40,35,30,26,80,54,43,30.19,30.07,18,6,21,0.02
2013-4-4,50,44,41,44,40,31,95,87,49,30.08,29.94,13,4,14,0.02
2013-4-5,68,52,41,48,42,34,97,71,36,30.12,30.00,16,1,17,0.02
2013-4-6,75,60,43,48,43,37,92,59,28,30.05,29.86,22,3,22,0.01
2013-4-7,70,63,58,57,53,45,80,68,57,29.98,29.89,15,3,18,0.01
2013-4-8,78,71,62,60,58,53,83,65,52,29.93,29.79,20,5,24,0.01
2013-4-9,82,74,67,68,65,58,85,74,61,29.93,29.80,23,6,23,0.00
2013-4-10,83,78,71,69,67,65,85,69,56,29.88,29.60,26,8,26,0.14
2013-4-11,72,52,43,67,50,41,100,94,83,29.77,29.61,16,1,16,5.16
2013-4-12,63,47,39,47,41,38,97,85,47,29.87,29.76,14,1,15,0.28
2013-4-13,71,58,44,50,44,38,85,61,39,30.05,29.86,5,2,13,0.00
2013-4-14,68,62,53,57,52,47,84,70,56,29.87,29.69,14,6,27,0.00
2013-4-15,81,72,57,65,62,54,92,71,53,29.87,29.76,19,6,19,0.00
2013-4-16,85,77,70,72,69,64,89,78,63,29.98,29.84,23,5,23,0.00
2013-4-17,86,79,70,73,70,67,92,73,55,30.01,29.78,22,6,22,0.00
2013-4-18,79,70,46,69,63,44,94,77,58,29.81,29.55,26,6,29,2.05
2013-4-19,55,47,44,44,36,32,93,67,48,30.06,29.79,15,1,15,0.00
2013-4-20,66,54,38,43,40,36,93,63,38,30.20,30.09,3,1,12,0.00
2013-4-21,67,61,46,43,40,38,74,48,35,30.29,30.13,18,3,19,0.00
2013-4-22,74,62,46,53,47,40,84,59,43,30.15,29.96,19,3,19,0.00
2013-4-23,74,66,59,63,59,51,88,76,64,30.00,29.83,24,4,24,0.13
2013-4-24,66,49,42,64,44,40,94,84,63,30.25,29.81,18,2,18,0.60
2013-4-25,68,53,37,46,41,35,95,68,36,30.34,30.23,12,1,14,0.00
2013-4-26,64,56,50,47,44,42,81,64,50,30.37,30.22,12,2,14,0.00
2013-4-27,73,66,53,67,62,50,95,88,81,30.17,29.81,17,2,17,0.69
2013-4-28,61,59,58,59,57,56,94,93,87,29.92,29.87,4,0,5,0.00
2013-4-29,78,64,49,60,55,48,96,76,48,29.96,29.81,4,1,12,0.01
2013-4-30,81,70,56,59,56,52,91,65,44,29.90,29.82,6,2,15,0.00
2013-5-1,78,73,65,67,63,56,86,72,60,29.99,29.87,16,3,19,0.00
2013-5-2,70,66,63,64,61,58,96,85,72,30.05,29.93,12,2,12,0.07
2013-5-3,64,49,38,63,47,36,98,94,91,29.95,29.83,13,1,13,2.04
2013-5-4,54,45,35,45,40,34,96,84,59,29.93,29.83,11,1,11,0.11
2013-5-5,61,51,46,51,47,45,96,86,60,29.88,29.81,15,1,19,6.59
2013-5-6,62,57,53,58,54,51,95,90,79,29.90,29.80,12,1,14,0.03
2013-5-7,74,63,51,61,56,50,96,80,59,29.96,29.88,11,1,11,0.00
2013-5-8,82,68,53,63,58,52,96,73,46,30.02,29.93,11,0,11,0.00
2013-5-9,81,71,59,65,62,57,93,74,53,30.01,29.88,20,2,20,0.00
2013-5-10,75,68,64,69,65,62,97,91,76,29.89,29.79,15,1,21,1.66
2013-5-11,66,64,61,65,62,58,97,94,90,29.89,29.87,9,2,9,0.05
2013-5-12,64,59,50,54,41,34,81,54,36,30.17,30.03,8,3,26,0.00
2013-5-13,75,62,46,54,48,43,92,64,41,30.21,30.07,4,1,15,0.00
2013-5-14,86,79,59,64,59,52,79,51,43,30.06,29.93,17,2,17,0.00
2013-5-15,86,77,68,61,57,50,67,51,35,30.05,29.88,19,2,19,0.00
2013-5-16,76,72,66,67,63,59,92,74,56,29.94,29.83,13,2,13,0.02
2013-5-17,80,71,66,71,67,63,96,87,72,29.89,29.81,13,1,13,0.12
2013-5-18,67,66,66,66,65,64,97,96,94,29.89,29.86,2,0,2,0.00
2013-5-19,87,80,74,74,71,66,92,74,54,29.90,29.79,7,4,19,0.00
2013-5-20,87,83,74,74,72,70,89,71,62,29.88,29.75,20,5,20,0.00
2013-5-21,79,70,64,73,67,62,96,91,76,29.95,29.72,17,3,17,2.87
2013-5-22,81,70,64,68,64,62,96,83,60,29.84,29.68,15,1,16,0.57
2013-5-23,81,73,63,67,63,58,94,72,58,30.06,29.83,14,1,14,0.00
2013-5-24,73,65,56,59,53,48,84,67,43,30.25,30.06,20,6,20,0.00
2013-5-25,78,67,53,61,54,49,90,64,40,30.25,30.08,12,2,12,0.00
2013-5-26,84,73,59,63,59,52,92,64,37,30.13,30.01,12,1,12,0.00
2013-5-27,84,74,66,71,64,59,81,70,51,30.03,29.89,22,3,22,0.00
2013-5-28,87,79,72,72,66,61,81,66,46,29.97,29.88,16,5,17,0.00
2013-5-29,86,79,69,71,66,60,78,66,46,29.97,29.85,21,4,22,0.01
2013-5-30,85,77,73,73,70,67,88,79,65,29.95,29.83,28,5,28,0.00
2013-5-31,84,76,65,76,72,64,96,86,72,29.95,29.76,19,4,19,1.67
2013-6-1,82,73,68,74,70,65,96,90,71,29.92,29.77,26,3,26,0.29
2013-6-2,78,71,67,69,66,62,97,83,65,29.91,29.84,15,2,16,0.04
2013-6-3,78,70,61,66,62,60,95,79,59,29.96,29.86,13,2,13,0.00
2013-6-4,83,74,62,68,63,59,91,72,52,29.95,29.84,12,2,12,0.00
2013-6-5,86,77,68,75,70,64,92,79,64,29.89,29.72,14,2,14,0.01
2013-6-6,82,75,69,70,68,66,94,80,63,29.78,29.69,12,2,13,0.00
2013-6-7,82,74,68,67,63,57,84,69,48,29.81,29.71,15,2,15,0.00
2013-6-8,82,73,60,64,61,57,94,67,44,29.92,29.82,4,1,12,0.00
2013-6-9,87,76,70,73,67,61,93,76,55,29.91,29.74,6,2,18,0.04
2013-6-10,93,86,68,74,70,66,97,61,45,29.85,29.78,14,1,15,0.02
2013-6-11,96,86,75,77,73,70,87,67,48,29.94,29.84,11,0,12,0.00
2013-6-12,96,87,76,79,75,72,90,70,52,29.97,29.82,16,1,16,0.00
2013-6-13,92,83,74,78,71,66,79,68,52,29.89,29.81,16,4,17,0.00
2013-6-14,85,77,67,67,64,60,93,67,46,29.98,29.87,17,3,18,0.00
2013-6-15,88,78,65,70,66,62,91,67,47,30.00,29.89,11,1,11,0.00
2013-6-16,88,80,73,76,71,68,88,75,62,29.97,29.87,7,0,7,0.00
2013-6-17,81,76,74,74,72,69,92,86,73,29.92,29.84,16,1,16,0.00
2013-6-18,83,76,69,72,70,68,97,81,65,29.91,29.77,12,1,12,0.01
2013-6-19,90,76,68,73,69,66,95,79,51,29.97,29.88,22,1,22,0.00
2013-6-20,91,80,68,73,70,66,95,72,50,30.06,29.96,10,1,10,0.00
2013-6-21,89,82,74,74,71,68,85,71,55,30.09,29.99,15,2,15,0.00
2013-6-22,89,82,73,74,71,68,85,71,55,30.07,29.93,13,2,13,0.00
2013-6-23,89,82,74,74,71,67,82,70,55,30.03,29.93,12,1,12,0.00
2013-6-24,89,79,75,77,73,71,89,82,63,30.05,29.98,12,1,12,0.00
2013-7-31,89,80,74,79,75,72,96,86,72,29.97,29.84,3,0,10,0.35
2013-8-1,84,78,73,75,72,70,97,84,64,29.97,29.88,7,2,15,0.13
2013-8-2,87,79,68,72,70,66,96,76,55,29.95,29.87,7,1,12,0.00
2013-8-3,81,78,74,75,72,70,94,84,77,29.99,29.85,9,1,19,0.04
2013-8-4,86,79,71,75,73,69,97,83,67,30.03,29.95,6,3,13,0.00
2013-8-5,78,78,77,76,75,74,93,92,91,29.87,29.85,6,2,6,1.41
2013-8-6,84,79,75,78,75,73,95,89,80,29.90,29.81,10,3,14,0.02
2013-8-7,90,83,77,78,75,73,91,79,62,29.89,29.79,7,2,11,0.00
2013-8-8,94,86,79,81,78,76,93,79,58,29.88,29.79,7,1,12,0.00
2013-8-9,94,85,78,80,77,75,91,78,59,29.95,29.85,7,1,13,0.00
2013-8-10,84,80,76,76,74,73,91,84,75,30.08,29.93,8,2,15,0.06
2013-8-11,83,77,72,77,74,71,97,91,75,30.08,29.98,6,1,12,1.78
2013-8-12,92,81,73,80,76,72,96,85,67,30.00,29.86,5,1,13,0.17
2013-8-13,83,77,72,75,73,69,97,87,73,29.95,29.87,11,1,15,0.01
2013-8-14,76,71,65,69,62,58,87,74,58,30.03,29.92,15,6,20,0.00
2013-8-15,78,68,58,62,59,55,90,74,53,30.03,29.95,9,2,14,0.00
2013-8-16,79,71,62,70,65,59,91,83,69,30.00,29.93,9,2,14,0.00
2013-8-17,79,73,67,71,68,66,94,86,73,30.03,29.95,8,2,13,0.07
2013-8-18,70,69,68,68,67,66,93,93,92,30.00,29.99,1,0,5,0.00
2013-8-19,84,75,66,72,69,65,96,82,63,30.05,29.94,6,2,13,0.00
2013-8-20,86,78,69,74,72,68,96,82,64,30.04,29.95,4,1,12,0.00
2013-8-21,91,82,72,76,73,70,95,77,56,30.07,29.98,6,1,11,0.00
2013-8-22,90,83,74,77,75,72,92,78,58,30.07,29.94,7,1,10,0.00
2013-8-23,90,82,72,77,74,70,95,78,60,30.01,29.92,11,2,14,0.00
2013-8-24,86,86,86,76,76,76,72,72,72,30.02,30.02,4,4,8,0.00
2013-8-25,86,80,76,75,74,72,90,82,68,30.20,30.07,7,2,13,0.00
2013-8-26,82,76,72,72,71,70,92,85,72,30.19,30.15,5,0,10,0.00
2013-8-27,88,80,72,74,70,66,87,72,56,30.07,29.98,7,1,10,0.00
2013-8-28,92,81,69,74,71,67,95,73,50,30.03,29.95,5,0,9,0.00
2013-8-29,94,83,72,77,73,69,93,75,53,30.01,29.91,7,0,10,0.00
2013-8-30,94,85,74,76,74,73,95,73,51,29.95,29.82,7,0,11,0.00
2013-8-31,97,86,75,77,74,72,91,70,50,29.85,29.75,8,1,9,0.00
2013-9-1,91,82,75,76,73,71,92,75,61,29.86,29.74,11,3,26,0.29
2013-9-2,91,81,74,78,75,72,94,84,65,29.86,29.76,6,1,13,0.04
2013-9-3,82,74,70,74,68,64,96,85,55,29.97,29.85,7,1,9,0.01
2013-9-4,84,74,65,69,66,62,93,76,56,30.07,29.95,11,2,18,0.00
2013-9-5,85,75,64,70,66,62,93,76,51,30.10,30.03,10,2,13,0.00
2013-9-6,88,77,67,70,68,64,92,74,53,30.08,29.97,8,2,12,0.00
2013-9-7,93,81,68,73,70,66,93,71,48,30.01,29.90,6,0,12,0.00
2013-9-8,96,83,70,75,72,67,92,70,46,29.93,29.82,6,0,10,0.00
2013-9-9,92,82,75,76,73,71,91,75,57,29.97,29.87,6,1,13,0.32
2013-9-10,95,82,75,76,73,71,90,76,49,30.06,29.96,6,1,26,1.12
2013-9-11,90,81,74,76,74,72,93,79,59,30.10,29.99,7,1,9,0.01
2013-9-12,93,82,73,76,73,70,92,76,52,30.00,29.86,6,1,12,0.00
2013-9-13,80,74,69,72,63,58,92,70,49,29.96,29.89,9,4,20,0.00
2013-9-14,74,65,56,57,54,51,90,69,47,30.05,29.96,8,3,19,0.00
2013-9-15,84,69,54,63,58,52,93,70,40,30.05,29.99,3,1,9,0.00
2013-9-16,85,72,60,67,61,57,91,71,42,30.09,30.01,8,2,14,0.00
2013-9-17,87,77,66,69,67,64,93,75,54,30.10,29.97,9,3,12,0.00
2013-9-18,85,78,72,74,71,68,89,79,68,30.04,29.95,11,3,15,0.00
2013-9-19,90,80,71,73,70,68,93,73,52,30.03,29.88,8,2,16,0.00
2013-9-20,79,74,70,74,70,68,97,88,69,29.91,29.77,7,1,11,1.84
2013-9-21,74,68,61,69,60,56,97,78,53,29.86,29.75,18,4,23,0.06
2013-9-22,75,65,54,58,55,52,92,73,53,29.91,29.82,10,3,18,0.00
2013-9-23,81,68,56,64,59,53,92,73,52,29.91,29.81,7,2,12,0.00
2013-9-24,77,71,68,72,68,62,96,89,79,29.86,29.74,7,2,14,0.25
2013-9-25,82,74,69,71,69,67,97,84,61,29.78,29.71,6,1,12,0.00
2013-9-26,84,75,66,71,68,65,96,80,58,29.92,29.77,8,2,13,0.01
2013-9-27,84,74,64,69,66,62,95,77,54,30.02,29.92,8,2,11,0.00
2013-9-28,82,73,64,64,63,60,88,71,56,30.06,29.95,9,2,14,0.00
2013-9-29,71,69,65,62,61,61,89,77,71,29.99,29.94,6,3,13,0.04
2013-9-30,74,69,66,69,67,64,97,92,85,29.92,29.86,7,3,11,0.01
2013-10-1,82,75,68,73,70,66,93,84,70,30.00,29.90,8,2,12,0.00
2013-10-2,84,77,71,72,69,68,92,77,61,30.04,29.95,7,2,13,0.00
2013-10-3,84,78,68,73,70,66,92,78,65,29.99,29.88,11,4,14,0.00
2013-10-4,84,77,71,74,72,68,93,84,71,30.00,29.91,11,2,13,0.00
2013-10-5,85,80,73,74,73,71,92,77,66,29.96,29.81,9,3,14,0.10
2013-10-6,75,63,55,72,55,48,94,77,55,29.94,29.82,6,1,13,0.59
2013-10-7,67,57,49,53,50,47,95,78,60,30.07,29.91,12,2,18,0.01
2013-10-8,71,61,48,55,52,46,94,74,52,30.11,30.01,11,3,16,0.00
2013-10-9,76,68,56,66,61,52,93,81,70,30.09,30.01,7,3,12,0.00
2013-10-10,78,69,58,66,62,57,96,81,59,30.09,29.95,6,1,10,0.00
2013-10-11,81,72,58,66,62,57,96,74,54,30.00,29.90,8,1,11,0.01
2013-10-12,74,66,61,68,64,59,96,91,83,30.07,29.93,4,0,13,0.20
2013-10-13,77,68,63,66,64,61,97,88,66,30.21,30.07,8,3,16,0.01
2013-10-14,79,68,57,65,59,52,82,73,57,30.17,30.00,6,2,12,0.00
2013-10-15,72,69,67,67,65,64,96,86,80,30.00,29.89,9,2,14,0.19
2013-10-16,67,61,55,66,59,53,97,94,85,29.98,29.89,10,2,16,0.09
2013-10-17,66,60,55,56,54,52,95,83,63,29.98,29.91,6,1,12,0.05
2013-10-18,69,58,46,56,51,45,100,79,53,30.03,29.89,4,1,11,0.02
2013-10-19,60,54,47,55,49,44,93,84,67,30.03,29.87,6,1,15,0.01
2013-10-20,66,52,41,49,44,39,95,77,46,30.07,29.95,4,1,11,0.02
2013-10-21,72,58,44,55,49,42,93,75,49,30.03,29.92,8,1,12,0.01
2013-10-22,67,58,51,53,48,44,93,71,45,30.03,29.85,8,2,13,0.01
2013-10-23,58,52,44,49,42,39,85,68,53,30.12,29.90,8,2,20,0.01
2013-10-24,61,50,42,48,42,36,92,75,55,30.33,30.06,13,2,19,0.00
2013-10-25,52,42,35,38,34,30,90,73,45,30.49,30.30,11,1,16,0.01
2013-10-26,64,51,37,50,41,33,91,70,51,30.29,30.05,9,1,14,0.00
2013-10-27,64,60,54,59,55,50,93,86,77,30.06,29.96,8,1,11,0.01
2013-10-28,68,61,55,59,57,54,96,87,73,30.17,30.01,4,0,7,0.00
2013-10-29,74,67,55,67,62,53,96,86,75,30.19,30.05,8,3,14,0.01
2013-10-30,75,70,63,67,65,61,92,83,74,30.12,29.92,9,4,14,0.00
2013-10-31,71,68,62,68,64,53,95,89,64,29.90,29.51,21,7,29,1.13
2013-11-1,73,60,50,55,52,48,95,75,46,29.85,29.70,7,1,13,0.03
2013-11-2,60,53,42,51,45,40,93,76,57,30.16,29.84,7,1,16,0.01
2013-11-3,60,50,39,45,41,37,95,74,50,30.27,30.11,8,2,12,0.00
2013-11-4,65,57,45,50,46,39,83,67,52,30.24,30.15,10,3,20,0.00
2013-11-5,70,63,56,55,51,46,72,65,58,30.25,30.09,15,6,20,0.00
2013-11-6,62,60,52,60,55,48,96,85,67,30.09,29.99,10,4,18,0.24
2013-11-7,54,46,39,42,38,35,92,74,50,30.37,30.22,13,2,20,0.00
2013-11-8,62,50,34,43,39,32,95,69,41,30.35,30.17,7,1,11,0.00
2013-11-9,60,52,41,46,43,38,89,72,54,30.25,30.15,6,1,15,0.00
2013-11-10,66,53,44,49,44,40,94,74,44,30.31,30.22,10,2,16,0.00
2013-11-11,70,52,40,50,44,36,90,74,43,30.26,30.11,4,0,8,0.00
2013-11-12,54,40,30,49,31,23,91,71,51,30.64,30.17,16,7,29,0.00
2013-11-13,47,37,27,29,25,21,87,64,38,30.68,30.42,9,1,12,0.00
2013-11-14,56,44,26,33,26,24,91,55,31,30.41,30.13,9,2,18,0.00
2013-11-15,59,51,43,52,45,28,94,81,53,30.12,29.97,7,2,12,0.06
2013-11-16,68,60,53,65,58,51,96,91,87,30.00,29.81,11,5,27,0.00
2013-11-17,77,69,57,71,65,47,96,88,58,29.93,29.64,13,5,26,0.93
2013-11-18,63,55,43,43,39,31,88,55,39,30.21,29.93,11,2,16,0.00
2013-11-19,50,46,38,33,30,27,76,55,43,30.27,30.13,9,3,16,0.00
2013-11-20,63,44,34,43,34,29,85,69,45,30.15,30.02,9,2,15,0.00
2013-11-21,67,60,52,59,53,42,95,79,68,30.15,30.06,11,4,19,0.63
2013-11-25,34,34,34,29,29,29,81,80,79,30.28,30.27,0,0,1,0.09
2013-11-26,40,37,34,36,32,24,92,80,67,30.10,29.90,21,5,22,0.07
2013-11-27,33,28,22,24,19,16,88,69,56,30.36,30.09,20,3,22,0.00
2013-11-28,46,32,21,27,22,17,89,68,41,30.44,30.34,13,1,15,0.00
2013-11-29,56,40,27,35,31,25,91,72,45,30.52,30.38,10,1,10,0.00
2013-11-30,56,43,28,35,31,26,92,67,39,30.40,30.16,14,1,17,0.00
2013-12-1,59,52,39,47,40,33,82,65,58,30.17,29.87,10,1,10,0.00
2013-12-2,60,55,47,54,49,43,94,82,69,29.87,29.66,9,1,9,0.01
2013-12-3,59,54,46,58,53,44,97,95,92,29.70,29.62,11,2,11,0.00
2013-12-4,75,68,59,65,63,57,98,84,69,29.75,29.62,24,5,28,0.01
2013-12-5,70,48,34,66,45,32,99,88,79,30.11,29.75,19,5,20,0.68
2013-12-6,34,30,24,32,28,22,93,92,90,30.42,30.02,19,3,19,0.61
2013-12-7,28,25,21,26,22,18,92,88,86,30.54,30.29,0,0,0,0.00
2013-12-8,34,31,28,33,30,26,95,94,92,30.32,30.02,7,0,7,0.03
2013-12-9,33,32,30,30,28,27,94,88,83,30.27,30.12,15,3,16,0.01
2013-12-10,39,31,24,30,25,20,92,80,69,30.41,30.17,11,1,12,0.05
2013-12-11,26,25,24,24,23,22,92,92,92,30.38,30.36,0,0,0,0.00
2013-12-12,43,31,21,24,20,16,86,67,39,30.59,30.36,6,1,15,0.00
2013-12-13,48,36,25,37,27,21,93,71,43,30.35,29.89,6,2,12,0.56
2013-12-14,44,40,36,42,38,31,96,90,83,30.10,29.75,7,2,16,0.64
2013-12-15,39,34,32,31,29,28,89,81,72,30.24,30.10,4,1,13,0.00
2013-12-16,59,50,32,41,38,29,91,65,50,30.17,30.06,16,2,20,0.00
2013-12-17,60,46,33,43,37,31,92,73,52,30.25,30.10,15,1,15,0.00
2013-12-18,59,46,31,40,34,29,93,67,40,30.31,30.06,14,3,15,0.01
2013-12-19,61,55,46,54,47,39,79,74,67,30.09,29.88,19,6,20,0.00
2013-12-20,68,64,60,65,60,54,95,86,78,29.91,29.73,22,7,29,0.50
2013-12-21,75,66,52,67,62,51,96,88,74,29.73,29.39,26,7,28,1.40
2013-12-22,54,53,52,52,51,50,96,95,85,29.86,29.65,11,0,12,0.00